sat.trackr.live / text

‹ back to catalog

STARLINK-33782

NORAD 64332 · 2025-124R

PAYLOAD ACTIVE UNKNOWN

§ Identity

Operator
Country
US
Launch date
2025-06-10
Launch site
AFETR
Launch vehicle
Mass (kg)
RCS (m²)

Purposes: comms

External: N2YO · Heavens-Above · Gunter

§ Orbital elements

Epoch: 2026-05-25T00:11:38.988096Z

Period
94.27 min
Inclination
43.0002°
Eccentricity
0.0001492
Mean motion
15.27566246 rev/d
Perigee alt
482.1 km
Apogee alt
484.1 km
Semi-major
6,861.2 km
B*
7.5530e-4
RAAN
50.5808°
Arg perigee
245.2501°
Mean anomaly
114.8196°
Rev number
5,345

§ Raw data

STARLINK-337821 64332U 25124R   26145.00809014  .00020571  00000+0  75530-3 0  99992 64332  43.0002  50.5808 0001492 245.2501 114.8196 15.27566246 53451

JSON: /api/v1/satellites/64332 · /tle

For live sub-satellite position, see the globe view (requires WebGL).

§ Visibility from observer

Set your observer location to see the next 7 days of passes ≥ 10°. The values pass through the URL so the page stays shareable.

No JS? Fill the form by hand. The geolocation button needs JavaScript.